Hourly Data Report for May 28, 2021

VINELAND STATION RCS
ONTARIO
Current Station Operator: ECCC - MSC

43°11'00.000" N
79°24'00.000" W
79.20 m
6139148
71171
XVN

Download Data

Hourly Data (May 2021)
Hourly Data Report for May 28, 2021
TIME
LST
Temp Definition
°C
Dew Point Definition
°C
Rel Hum Definition
%
Precip. Amount Definition
mm

Wind Dir Definition
10's deg

Wind Spd Definition
km/h
Visibility Definition
km
Stn Press Definition
kPa
Hmdx Definition


Wind Chill Definition


Weather Definition


00:00 11.3 4.3 62 0.0 1 16   101.03     LegendNANA
01:00 10.9 4.6 65 0.0 36 14   101.05     LegendNANA
02:00 11.4 4.8 64 0.0 4 22   100.94     LegendNANA
03:00 11.2 4.0 61 0.0 7 30   100.89     LegendNANA
04:00 10.6 3.6 62 0.0 7 26   100.94     LegendNANA
05:00 9.9 3.9 66 0.0 5 27   101.03     LegendNANA
06:00 9.6 4.0 68 0.0 5 28   101.10     LegendNANA
07:00 8.4 3.8 73 0.3 6 27   101.09     LegendNANA
08:00 7.5 3.5 76 0.5 8 26   101.07     LegendNANA
09:00 6.8 2.9 76 0.6 8 25   101.01     LegendNANA
10:00 6.4 4.1 85 0.4 5 32   101.01     LegendNANA
11:00 5.5 4.0 90 1.2 6 28   101.02     LegendNANA
12:00 5.6 4.3 91 2.0 7 28   100.96     LegendNANA
13:00 5.8 4.4 91 3.1 6 28   100.88     LegendNANA
14:00 6.1 4.9 92 2.9 6 26   100.81     LegendNANA
15:00 6.0 4.8 92 2.0 5 26   100.83     LegendNANA
16:00 6.0 4.8 91 1.7 7 26   100.74     LegendNANA
17:00 6.3 5.0 92 1.4 6 25   100.67     LegendNANA
18:00 6.3 4.8 90 0.5 4 29   100.82     LegendNANA
19:00 6.6 3.3 79 0.0 6 22   100.78     LegendNANA
20:00 7.3 3.5 77 0.0 6 21   100.77     LegendNANA
21:00 7.6 3.3 75 0.0 6 18   100.83     LegendNANA
22:00 7.8 3.6 75 0.0 6 17   100.80     LegendNANA
23:00 8.0 3.7 74 0.0 6 16   100.84     LegendNANA

Notes on Data Quality.

Legend

  • E = Estimated
  • M = Missing
  • NA = Not Available*
  • [empty] = Indicates an unobserved value
Date modified: